This is the latest recevied weather packets stored in our database for station/object I2HLY-3. If no packets are shown the sender has not sent any weather packets the latest 10 day(s).
| Time | Temp. | Humidity | Pressure | Rain* | Wind** | Luminosity | Snow |
|---|---|---|---|---|---|---|---|
| 1777658552 | 19.44° C | 41% | 1022.9 hPa | 0 mm | - | - | - |
| 1777657651 | 19.44° C | 40% | 1022.8 hPa | 0 mm | - | - | - |
| 1777656750 | 20° C | 43% | 1022.8 hPa | 0 mm | - | - | - |
| 1777655850 | 20.56° C | 37% | 1022.8 hPa | 0 mm | - | - | - |
| 1777654953 | 20.56° C | 39% | 1022.8 hPa | 0 mm | - | - | - |
| 1777654053 | 20.56° C | 36% | 1022.9 hPa | 0 mm | - | - | - |
| 1777653153 | 21.11° C | 36% | 1023 hPa | 0 mm | - | - | - |
| 1777652237 | 20.56° C | 37% | 1023 hPa | 0 mm | - | - | - |
| 1777651337 | 20.56° C | 36% | 1023.2 hPa | 0 mm | - | - | - |
| 1777650437 | 20.56° C | 39% | 1023.3 hPa | 0 mm | - | - | - |
| 1777649541 | 20.56° C | 38% | 1023.5 hPa | 0 mm | - | - | - |
| 1777648637 | 20.56° C | 39% | 1023.6 hPa | 0 mm | - | - | - |
| 1777647756 | 20° C | 42% | 1023.7 hPa | 0 mm | - | - | - |
| 1777646840 | 20° C | 38% | 1023.8 hPa | 0 mm | - | - | - |
| 1777645938 | 20° C | 40% | 1024 hPa | 0 mm | - | - | - |
| 1777645038 | 20° C | 38% | 1024.2 hPa | 0 mm | - | - | - |
| 1777644141 | 19.44° C | 38% | 1024.4 hPa | 0 mm | - | - | - |
| 1777643239 | 19.44° C | 39% | 1024.6 hPa | 0 mm | - | - | - |
| 1777642337 | 18.89° C | 42% | 1024.8 hPa | 0 mm | - | - | - |
| 1777641437 | 18.89° C | 40% | 1024.9 hPa | 0 mm | - | - | - |
| 1777640542 | 18.89° C | 40% | 1025.1 hPa | 0 mm | - | - | - |
| 1777639641 | 18.89° C | 38% | 1025.2 hPa | 0 mm | - | - | - |
| 1777638741 | 19.44° C | 39% | 1025.3 hPa | 0 mm | - | - | - |
| 1777637845 | 18.89° C | 37% | 1025.5 hPa | 0 mm | - | - | - |
| 1777636943 | 18.89° C | 39% | 1025.6 hPa | 0 mm | - | - | - |
* Rain latest hour (hover to see other rain measurements)
** Current wind speed in m/s (hover to see current wind gust speed)